sat.trackr.live / text

‹ back to catalog

STARLINK-35839

NORAD 67169 · 2025-303G

PAYLOAD ACTIVE UNKNOWN

§ Identity

Operator
Country
US
Launch date
2025-12-17
Launch site
AFETR
Launch vehicle
Mass (kg)
RCS (m²)

Purposes: comms

External: N2YO · Heavens-Above · Gunter

§ Orbital elements

Epoch: 2026-05-24T22:49:49.262304Z

Period
94.27 min
Inclination
43.0026°
Eccentricity
0.0001186
Mean motion
15.27586320 rev/d
Perigee alt
482.2 km
Apogee alt
483.8 km
Semi-major
6,861.2 km
B*
6.0056e-4
RAAN
240.4375°
Arg perigee
273.1712°
Mean anomaly
86.9004°
Rev number
2,439

§ Raw data

STARLINK-358391 67169U 25303G   26144.95126461  .00016304  00000+0  60056-3 0  99962 67169  43.0026 240.4375 0001186 273.1712  86.9004 15.27586320 24394

JSON: /api/v1/satellites/67169 · /tle

For live sub-satellite position, see the globe view (requires WebGL).

§ Visibility from observer

Set your observer location to see the next 7 days of passes ≥ 10°. The values pass through the URL so the page stays shareable.

No JS? Fill the form by hand. The geolocation button needs JavaScript.